Lake Fork, ID (83635)

6:16 AM MST on December 06, 2016 (GMT -0700)
Spring Mountain Ranch | | Change Station

Elev 5097 ft 44.91 °N, 116.08 °W | Updated 33 seconds ago

Light Snow
Light Snow Mist
15.3 °F
Feels Like 15 °F
N
0.0
Wind Variable Wind from ESE

Today
High -- | Low -- °F
--% Chance of Precip.
Yesterday
High -- | Low -- °F
Precip. -- in
Pressure 29.76 in
Visibility 2.5 miles
Clouds Overcast 1700 ft
Windchill 15 °F
Dew Point 14 °F
Humidity 96%
Rainfall 0.00 in
Snow Depth Not available.
8:07 AM 5:03 PM
Waxing Crescent, 41% visible
SPECI KMYL 061304Z AUTO 00000KT 2 1/2SM -SN BR OVC017 M09/M11 A2976 RMK AO2 P0000 T10891111
Pressure 29.76 in
Visibility 2.5 miles
Clouds Overcast 1700 ft
Windchill 15 °F
Dew Point 14 °F
Humidity 96%
Rainfall 0.00 in
Snow Depth Not available.
8:07 AM 5:03 PM
Waxing Crescent, 41% visible
SPECI KMYL 061304Z AUTO 00000KT 2 1/2SM -SN BR OVC017 M09/M11 A2976 RMK AO2 P0000 T10891111

10-Day Weather Forecast

Almanac

Astronomy

Dec. 06, 2016 Rise Set
Actual Time
Civil Twilight
Nautical Twilight
Astronomical Twilight
Moon
Length of Visible Light
Length of Day
Tomorrow will be .
, % of the Moon is Illuminated

Today's Extremes

State Highs State Lows

Community

WunderPhotos

Upload Photos

1,955,938 photos uploaded!

WunderBlog® & News

Nearby

Air Quality

  Air Quality AQ Index Pollutant
Not available.

Snow Depth

Station Depth Elevation

Earthquake Activity

City Distance Mag. Time & Date
Minimum magnitude displayed is 2.5.

Coastal Water Temperatures

Place Temperature

Stations

Nearby Weather Stations

Station Location Temp. Windchill Dew Point Humidity Wind Precip. Elev Updated Type
                   

Watches & Warnings

There are currently no watches in effect.